ATLAS 5 CENTAUR R/B, 41867

Orbit data source: Space-Track

ATLAS 5 CENTAUR R/B, 41867 is space debris in HEO originally from a launch on Sat, 19 Nov 2016 UTC launched from the Air Force Eastern Test Range (AFETR). Debris objects in space refer to the collection of defunct objects orbiting the Earth. Examples of debris include non-operational satellites, rocket bodies, and fragments generated from explosions, collisions, or faulty payload assembly.

Loading next visibility...
Identifier
41867, 2016-071B
Orbit
HEO
Last TLE update
2 days ago
Origin
Manufacturer
ULA Decatur
Mission
Spacecraft
Bus & Motor
CENTAUR SEC, RL10C-1
Mass
~2,020 kg wet, 2,020 kg dry
Launch date (UTC)
2016-11-19 (8 years ago)
Launch vehicle
Unknown
Launch site
Air Force Eastern Test Range (AFETR)
Object type
Payload
Rocket body
Debris
Shape & HBR
Cyl + 1 Nozzle, 11.7 m
Radar Cross Section
32.260 m², Large (>1 m²)

Expand to show TLE details & history

TLE from 2 days ago
0 ATLAS 5 CENTAUR R/B
1 41867U 16071B   25128.05252480 -.00000192  00000-0  00000+0 0  9997
2 41867  11.5235 294.0343 4918019  86.9004 326.0533  1.89346616 58547
Epoch: 2025-05-08T01:15Z
Definitive object data (Epoch: 2025-05-08T01:15:38.142Z)
Latitude
Longitude
48.88°
Altitude
14,008.455 km
Speed
4.966 km/s
True Right ascension
19h 35m 40s
True Declination
0° 00' 00"
Sunlit
Object was in daylight at TLE epoch
Visualization TLE readout
Latitude
-5.46813°
Longitude
20.76812°
Altitude
20,237.506 km
Speed
3.938 km/s
Apparent Right ascension
17h 00m 49s
Apparent Declination
-14° 29' 38"
Sunlit
Object is in daylight
Visualization observer readout
Local Sidereal Time
22:37:25
Azimuth
255.154° W
Elevation
-4.869°
Doppler factor
1
Orbital elements
Apogee altitude
34,797.848 km
Perigee altitude
7,648.898 km
Semi-major axis
27,601.51 km
Eccentricity
0.4918019
Inclination
11.5235°
RAAN
294.0343°
Arg. of periapsis
86.9004°
True anomaly
273.20541°
Mean anomaly
326.0533°
Eccentric anomaly
302.21236°
Mean motion
0.47331 °/min
BSTAR
Unknown
Orbital period
760.6 mins
Loading maneuver chart data...
Loading SW <> Apogee altitude chart data...
Loading historical data...
Loading historical data...
Loading historical data...
Loading historical data...
Loading historical data...
Loading historical data...
Loading historical data...
Other satellites on launch #71 in the year 2016 (2016-11-19 UTC)

ATLAS 5 CENTAUR R/B Visibility forecast

Observer location: undefined°, undefined°

Span
Click to sort rows by Start time (UTC) header in descending order
Start Az.
Max El. time (UTC)
Max El. Az.
Max El.
End time (UTC)
End Az.
93 mins2025-05-09 15:28:16.069Z244.7° WSW2025-05-09 16:22:16.069Z176.448° S33.499°2025-05-09 17:01:16.069Z110.411° ESE
|